Location: Brantley
(31.5822°N, 86.2569°W)
Time: 02:42:24
(UTC+00:00)

Vanguard 2 - Pass Details

Date: 22 February 2026
Orbit: 553 x 2896 km, 32.9° (Epoch: 13 March)

Event Time Altitude Azimuth Distance (km) Brightness Sun altitude
Rises 11:10:37 0° 262° (W) 4,452 - -15.4°
Reaches altitude 10° 11:14:13 10° 263° (W) 3,102 - -14.6°
Exits shadow 11:16:20 19° 265° (W) 2,299 9.3 -14.2°
Maximum altitude 11:21:19 83° 351° (N) 824 7.6 -13.1°
Drops below altitude 10° 11:25:56 10° 81° (E) 2,048 11.1 -12.2°
Sets 11:27:54 0° 82° (E) 2,842 12.3 -11.7°
